Location: Laura�t
(43.9341°N, 0.2497°E)
Time: 00:10:45
(UTC+00:00)

Cosmos 2219 Rocket - Pass Details

Date: 03 March 2021
Orbit: 826 x 848 km, 71.0° (Epoch: 17 April)

Event Time Altitude Azimuth Distance (km) Brightness Sun altitude
Rises 19:22:10 0° 183° (S) 3,350 5.3 -17.3°
Reaches altitude 10° 19:24:41 10° 176° (S) 2,422 4.5 -17.8°
Maximum altitude 19:29:52 42° 107° (ESE) 1,163 2.4 -18.7°
Drops below altitude 10° 19:35:07 10° 38° (NE) 2,448 4.3 -19.6°
Sets 19:37:40 0° 32° (NNE) 3,389 5.1 -20.1°
